Dewpoint
30 27 23 22 13 15 15 20 20 22 21 24 26 29 32 31 31 42 45 43 43 43 45 48 49 49 47 47 46 44 42 41 41 41 42 42 41 41 41 41 39 39 39 38
26 26 23 21 21 17 15 19 19 19 23 25 25 31 28 28 31 40 43 43 43 42 43 47 48 48 46 46 46 44 42 41 41 41 41 42 41 41 41 40 39 39 38 37
23 28 24 19 22 18 18 24 14 16 20 19 21 24 30 26 27 40 43 43 42 41 42 44 46 47 45 46 45 44 42 41 41 41 41 41 40 41 40 39 39 39 38 37
25 27 19 24 34 30 32 34 34 34 34 33 29 23 26 30 26 37 43 42 42 41 41 43 44 45 45 45 44 43 41 41 41 41 41 41 40 40 39 39 38 38 38 37
23 25 23 28 33 34 35 32 36 35 32 33 34 30 25 29 31 40 43 43 42 42 42 42 43 43 43 43 43 42 41 41 40 40 40 40 39 39 39 39 38 38 38 37
24 21 16 30 32 35 36 30 36 37 37 34 34 28 23 34 35 38 43 43 43 42 42 42 43 43 42 42 42 41 41 41 40 40 40 39 39 39 39 39 38 38 38 38
23 21 26 31 34 34 29 30 36 35 36 37 34 35 36 37 36 37 41 43 43 42 41 42 43 42 42 42 41 41 41 41 40 39 39 39 39 39 39 39 39 38 38 39
23 20 16 33 31 30 33 36 36 36 36 38 37 37 37 37 36 37 39 42 43 42 42 43 43 42 41 41 42 41 40 41 40 39 38 39 39 39 39 39 39 38 37 37
25 24 32 36 34 37 37 36 37 37 37 39 37 37 37 38 38 37 39 41 42 42 42 43 43 42 41 41 41 40 40 39 39 39 38 39 39 39 39 39 39 38 37 37
29 27 32 34 32 37 38 38 37 37 38 39 36 38 38 39 38 37 39 40 41 42 42 42 43 42 42 41 41 40 39 38 39 38 38 39 39 39 40 39 39 38 37 36
24 27 29 32 34 35 36 37 37 38 39 37 37 38 39 39 38 38 39 40 42 42 42 42 42 42 42 41 41 39 38 38 38 38 38 39 39 39 39 40 39 39 38 37
21 26 27 29 36 36 36 37 38 38 39 35 38 38 40 41 40 38 38 41 41 42 42 42 42 42 41 41 40 39 37 37 38 39 38 39 39 36 35 37 36 36 36 37
28 31 27 33 36 36 37 37 37 39 34 32 34 37 39 40 40 41 42 42 42 43 43 43 42 42 42 41 40 38 36 36 38 38 39 39 39 38 37 32 34 35 35 35
31 31 25 33 33 37 37 37 37 38 36 32 32 33 35 39 40 41 42 43 44 45 44 42 42 42 43 42 40 38 37 34 38 39 39 39 38 38 38 37 36 34 34 35
31 27 27 34 35 36 35 36 36 35 36 36 36 34 33 35 35 38 41 42 42 40 40 43 42 43 44 43 40 38 37 36 38 40 40 39 39 38 38 37 37 34 32 32
32 31 31 33 35 34 34 34 34 37 37 37 36 36 34 32 34 34 34 37 39 41 41 41 42 43 44 43 41 40 38 35 38 40 39 39 38 37 37 37 36 35 34 35
30 28 32 34 32 32 33 34 35 36 36 36 37 37 36 32 32 34 32 29 31 34 36 40 41 42 45 44 43 43 42 39 37 40 39 39 38 37 36 36 36 35 35 32
30 34 35 34 32 31 31 32 32 35 35 36 36 35 35 36 33 31 32 35 32 28 31 35 37 40 40 42 45 44 42 40 40 40 40 39 39 38 37 36 36 35 34 31
35 34 34 32 31 31 32 32 30 32 34 36 35 35 35 34 34 34 31 31 33 32 30 30 32 39 41 38 41 43 41 40 41 41 40 37 38 39 38 37 36 36 35 33
29 34 35 34 34 32 32 33 33 33 31 32 33 32 33 33 33 34 33 32 33 34 35 32 30 30 38 40 37 42 41 39 39 38 38 39 39 38 39 37 37 36 35 34
28 26 25 26 28 31 32 31 30 28 29 28 29 30 30 33 33 33 34 34 36 36 35 34 33 32 30 37 39 40 40 37 35 37 37 37 36 37 38 37 37 36 35 35
28 27 26 27 28 28 29 30 31 28 28 28 29 30 30 32 33 34 34 35 36 33 36 36 35 32 32 32 35 35 37 37 37 37 34 34 36 36 37 38 37 37 36 35
23 26 25 24 25 27 29 31 30 29 27 29 31 33 34 34 35 33 33 35 36 33 35 35 33 32 32 34 34 32 32 34 34 35 35 35 35 35 36 36 37 37 36 37
23 25 26 26 28 30 30 32 33 33 30 33 32 32 33 32 31 34 34 32 31 31 32 32 32 32 30 32 33 32 32 33 34 34 35 34 34 34 35 35 36 36 36 36
29 29 30 30 30 30 31 31 31 31 30 30 30 30 30 32 31 31 31 30 28 29 30 29 31 32 33 33 33 33 33 34 34 34 34 34 34 34 34 35 35 35 35 36
32 32 32 31 31 30 30 30 28 29 28 26 27 28 27 28 29 30 30 28 29 27 29 29 28 29 30 30 30 32 32 32 31 31 34 34 34 33 33 33 34 35 34 35
32 28 32 30 30 29 28 27 25 25 25 26 26 26 28 29 29 29 29 30 30 30 30 30 31 31 31 32 31 30 30 31 29 31 28 32 33 33 34 34 34 34 34 34
Lifted_Index
1 1 1 1 1 2 2 2 2 2 2 1 0 0 0 -0 -1 -1 -2 -2 -2 -2 -1 -1 -1 0 1 2 2 3 4 4 4 5 8 10 10 11 11 12 12 13 13 13
1 1 1 1 1 1 2 2 2 2 2 1 1 0 0 0 -0 -1 -1 -2 -2 -2 -1 -1 -1 -0 1 1 2 3 3 4 4 5 7 9 10 11 11 12 12 13 13 13
1 1 1 1 1 1 1 1 1 1 2 2 2 1 1 1 1 0 -1 -1 -1 -1 -1 -1 -1 -0 0 1 2 3 3 3 4 5 7 9 10 11 12 12 12 13 13 13
1 1 1 1 1 1 1 1 1 1 2 2 2 2 1 1 1 0 -0 -1 -1 -1 -1 -1 -1 -0 0 1 2 2 3 3 4 5 7 8 10 12 12 12 12 13 13 13
1 1 1 1 1 1 1 1 1 1 2 2 2 2 1 1 1 0 -0 -0 -1 -1 -1 -1 -1 -0 0 1 1 2 2 3 4 5 6 8 10 12 12 12 12 12 12 12
1 1 1 2 2 1 1 1 1 2 2 2 2 2 2 1 1 1 -0 -0 -1 -1 -1 -1 -1 -0 0 0 1 1 2 3 4 5 6 8 10 12 12 12 12 12 12 12
2 1 2 2 2 2 1 2 2 2 2 2 2 2 2 1 1 1 0 -0 -0 -1 -1 -1 -1 -1 -0 0 1 1 2 3 4 5 6 8 10 12 12 12 12 12 12 12
2 2 2 3 3 2 2 2 2 2 2 2 2 2 1 1 1 1 0 -0 -1 -1 -1 -1 -1 -1 -0 0 0 1 2 3 4 5 6 8 10 11 12 12 12 12 11 11
2 2 3 4 3 3 3 3 2 2 2 2 2 2 1 1 0 0 -0 -1 -1 -1 -1 -1 -1 -0 -0 0 1 1 2 3 4 5 6 7 9 11 12 12 11 11 11 11
3 4 4 4 4 4 4 3 3 3 3 2 2 2 1 1 -0 -0 -0 -1 -1 -1 -1 -1 -1 -0 -0 0 1 1 2 3 4 5 6 7 9 10 11 11 11 11 11 11
4 5 5 5 4 4 4 3 3 3 3 3 2 2 1 0 -0 -1 -1 -1 -1 -1 -1 -1 -1 -0 0 1 1 2 3 3 4 5 5 6 8 9 10 11 11 11 11 11
5 5 6 5 5 5 4 4 4 3 3 3 2 1 1 -0 -0 -1 -1 -1 -1 -1 -1 -1 -0 -0 0 1 1 2 3 3 4 5 5 6 7 8 9 10 10 10 11 11
5 5 6 6 6 6 5 4 4 4 4 3 3 2 1 -0 -1 -1 -1 -1 -1 -1 -1 -0 -0 -0 -0 0 1 2 2 3 4 4 5 5 6 6 7 9 10 10 10 10
5 5 5 5 6 6 5 4 4 4 4 3 3 2 1 0 -0 -1 -1 -1 -1 -1 -1 -0 -0 -0 -0 0 1 2 2 3 3 4 4 5 5 6 7 8 9 9 10 10
5 5 5 5 5 6 5 4 4 4 4 3 3 2 1 1 0 -1 -1 -1 -1 -1 -1 -0 -0 -0 -0 -0 0 1 2 2 3 3 4 4 5 5 6 7 8 9 9 9
5 5 5 4 5 5 5 5 4 4 4 4 4 3 3 2 1 -0 -1 -1 -1 -1 -0 -0 -0 -0 -0 -0 0 1 1 2 2 3 3 4 4 5 5 6 6 7 8 9
4 5 5 5 5 5 5 5 5 5 5 5 5 5 5 3 2 1 0 0 1 1 0 0 0 -0 -0 -0 0 0 1 1 1 2 2 2 3 3 4 5 5 5 6 7
3 4 5 5 5 5 5 5 6 6 7 7 7 7 6 5 3 3 2 2 2 2 2 1 1 0 0 0 0 0 0 1 1 1 1 1 2 2 3 3 4 4 5 6
3 3 4 6 6 6 6 6 7 8 8 9 8 8 7 7 6 5 4 4 4 4 4 3 3 2 1 1 1 1 1 1 1 1 1 1 1 1 2 2 3 3 4 4
2 2 4 5 6 6 7 7 7 8 9 9 9 9 9 8 8 7 6 5 5 6 6 6 5 4 3 2 2 1 1 1 1 1 1 1 1 1 1 1 2 2 3 3
1 2 3 4 5 5 6 6 7 7 8 8 9 9 9 9 9 8 7 6 7 8 8 8 7 7 6 5 4 3 3 2 2 2 2 2 1 1 1 1 1 2 2 2
1 1 2 2 3 4 5 5 6 6 7 7 7 8 8 8 9 8 8 8 8 9 9 8 8 9 8 8 7 6 5 4 3 3 2 2 2 2 2 2 2 2 2 2
0 1 1 1 2 2 3 4 5 5 6 6 7 7 8 8 8 8 8 9 9 9 9 9 10 10 10 10 9 8 7 6 5 4 4 3 3 3 3 3 3 3 3 3
0 0 0 1 1 1 2 3 4 5 5 6 7 7 8 8 8 8 8 9 9 9 10 10 10 11 11 11 11 11 10 9 8 7 6 5 5 5 5 4 4 4 4 4
-0 -0 0 0 1 1 2 2 3 4 5 6 7 7 8 9 9 9 9 9 9 10 10 10 10 10 11 11 11 11 11 11 10 10 8 7 7 7 7 6 6 6 5 5
-0 -0 0 0 1 1 2 2 3 3 4 5 6 7 8 8 9 9 9 9 9 9 9 9 9 9 10 10 10 10 11 11 11 11 10 10 9 8 8 8 8 7 7 6
-0 0 0 0 1 1 2 3 3 4 4 4 5 6 7 8 9 9 9 9 9 9 9 9 9 9 9 9 10 10 10 10 11 11 11 11 10 9 8 8 8 8 8 7